St. George, UT

11:54 PM MST on December 14, 2017 (GMT -0700)
Saint George Municipal

Weather History for KSGU - November, 2013

Change the Weather History Date:

Wednesday, November 20, 2013

  Actual Average Record
Temperature  
Mean Temperature 48 °F -  
Max Temperature 55 °F 61 °F 76 °F (1936)
Min Temperature 42 °F 31 °F 15 °F (1956)
Degree Days  
Heating Degree Days 16    
Moisture  
Dew Point 35 °F    
Average Humidity 60    
Maximum Humidity 70    
Minimum Humidity 47    
Precipitation  
Precipitation 0.00 in - - ()
Sea Level Pressure  
Sea Level Pressure 29.90 in    
Wind  
Wind Speed 2 mph (SSW)    
Max Wind Speed 7 mph    
Max Gust Speed -    
Visibility 10 miles    
Events      
Averages and records for this station are not official NWS values.
T = Trace of Precipitation, MM = Missing Value Source: NWS Daily Summary

Daily Weather History Graph

Daily Weather History Graph

Search for Another Location

Airport or City:

Trip Planner

Search our weather history database for the weather conditions in past years. The results will help you decide how hot, cold, wet, or windy it might be!

Date:

Astronomy

Nov. 20, 2013 Rise Set
Actual Time 7:18 AM MST 5:21 PM MST
Civil Twilight 6:50 AM MST 5:49 PM MST
Nautical Twilight 6:18 AM MST 6:20 PM MST
Astronomical Twilight 5:47 AM MST 6:51 PM MST
Moon 8:07 PM MST (11/20) 9:46 AM MST (11/20)
Length of Visible Light 10h 58m
Length of Day
10h 02m
Waning Gibbous, 91% of the Moon is Illuminated
Nov 20
Waning Gibbous
Nov 25
Last Quarter
Dec 2
New
Dec 9
First Quarter
Dec 17
Full

Hourly Weather History & Observations

Time (MST) Temp. Windchill Dew Point Humidity Pressure Visibility Wind Dir Wind Speed Gust Speed Precip Events Conditions
12:15 AM 46.4 °F 45.2 °F 33.8 °F 62% 29.96 in 10.0 mi NW 3.5 mph - N/A   Clear
12:35 AM 46.4 °F - 33.8 °F 62% 29.95 in 10.0 mi Calm Calm - N/A   Clear
12:55 AM 46.4 °F 45.2 °F 33.8 °F 62% 29.95 in 10.0 mi East 3.5 mph - N/A   Clear
1:15 AM 46.4 °F 42.9 °F 33.8 °F 62% 29.95 in 10.0 mi SSE 6.9 mph - N/A   Clear
1:35 AM 44.6 °F 41.4 °F 32.0 °F 61% 29.95 in 10.0 mi South 5.8 mph - N/A   Clear
1:55 AM 44.6 °F - 32.0 °F 61% 29.94 in 10.0 mi Calm Calm - N/A   Clear
2:15 AM 44.6 °F 42.2 °F 33.8 °F 66% 29.94 in 10.0 mi South 4.6 mph - N/A   Clear
2:35 AM 44.6 °F 40.7 °F 33.8 °F 66% 29.95 in 10.0 mi SSE 6.9 mph - N/A   Clear
2:55 AM 44.6 °F 42.2 °F 33.8 °F 66% 29.94 in 10.0 mi SSE 4.6 mph - N/A   Clear
3:15 AM 42.8 °F 40.1 °F 32.0 °F 66% 29.93 in 10.0 mi SE 4.6 mph - N/A   Clear
3:35 AM 44.6 °F 43.1 °F 33.8 °F 66% 29.93 in 10.0 mi SSW 3.5 mph - N/A   Clear
3:55 AM 44.6 °F 42.2 °F 33.8 °F 66% 29.92 in 10.0 mi East 4.6 mph - N/A   Clear
4:15 AM 46.4 °F 44.3 °F 33.8 °F 62% 29.92 in 10.0 mi East 4.6 mph - N/A   Clear
4:35 AM 46.4 °F 45.2 °F 33.8 °F 62% 29.93 in 10.0 mi NNW 3.5 mph - N/A   Clear
4:55 AM 46.4 °F - 33.8 °F 62% 29.92 in 10.0 mi Calm Calm - N/A   Clear
5:15 AM 44.6 °F - 33.8 °F 66% 29.92 in 10.0 mi Calm Calm - N/A   Clear
5:35 AM 44.6 °F - 33.8 °F 66% 29.92 in 10.0 mi Calm Calm - N/A   Clear
5:55 AM 42.8 °F - 33.8 °F 70% 29.92 in 10.0 mi Calm Calm - N/A   Clear
6:15 AM 42.8 °F 41.1 °F 33.8 °F 70% 29.91 in 10.0 mi South 3.5 mph - N/A   Clear
6:35 AM 42.8 °F - 33.8 °F 70% 29.91 in 10.0 mi Calm Calm - N/A   Clear
6:55 AM 44.6 °F - 33.8 °F 66% 29.92 in 10.0 mi Calm Calm - N/A   Clear
7:15 AM 42.8 °F - 32.0 °F 66% 29.92 in 10.0 mi Calm Calm - N/A   Clear
7:35 AM 44.6 °F - 33.8 °F 66% 29.93 in 10.0 mi Calm Calm - N/A   Clear
7:55 AM 44.6 °F - 33.8 °F 66% 29.94 in 10.0 mi Calm Calm - N/A   Clear
8:15 AM 44.6 °F - 33.8 °F 66% 29.94 in 10.0 mi Calm Calm - N/A   Clear
8:35 AM 44.6 °F 43.1 °F 33.8 °F 66% 29.94 in 10.0 mi SE 3.5 mph - N/A   Clear
8:55 AM 44.6 °F 41.4 °F 33.8 °F 66% 29.95 in 10.0 mi South 5.8 mph - N/A   Clear
9:15 AM 44.6 °F 42.2 °F 33.8 °F 66% 29.95 in 10.0 mi South 4.6 mph - N/A   Partly Cloudy
9:35 AM 46.4 °F - 35.6 °F 66% 29.94 in 10.0 mi Calm Calm - N/A   Partly Cloudy
9:55 AM 46.4 °F 45.2 °F 35.6 °F 66% 29.95 in 10.0 mi NNW 3.5 mph - N/A   Clear
10:15 AM 46.4 °F 43.5 °F 35.6 °F 66% 29.94 in 10.0 mi North 5.8 mph - N/A   Clear
10:35 AM 46.4 °F 43.5 °F 35.6 °F 66% 29.94 in 10.0 mi NW 5.8 mph - N/A   Partly Cloudy
10:55 AM 46.4 °F 45.2 °F 35.6 °F 66% 29.94 in 10.0 mi NNW 3.5 mph - N/A   Mostly Cloudy
11:15 AM 48.2 °F - 35.6 °F 62% 29.94 in 10.0 mi Calm Calm - N/A   Overcast
11:35 AM 48.2 °F - 35.6 °F 62% 29.93 in 10.0 mi Calm Calm - N/A   Mostly Cloudy
11:55 AM 48.2 °F - 35.6 °F 62% 29.92 in 10.0 mi Calm Calm - N/A   Mostly Cloudy
12:35 PM 50.0 °F - 35.6 °F 58% 29.90 in 10.0 mi Calm Calm - N/A   Scattered Clouds
12:55 PM 50.0 °F - 35.6 °F 58% 29.89 in 10.0 mi WNW 3.5 mph - N/A   Clear
1:35 PM 51.8 °F - 35.6 °F 54% 29.88 in 10.0 mi Calm Calm - N/A   Partly Cloudy
1:55 PM 51.8 °F - 35.6 °F 54% 29.86 in 10.0 mi Calm Calm - N/A   Partly Cloudy
2:15 PM 53.6 °F - 35.6 °F 51% 29.86 in 10.0 mi SW 4.6 mph - N/A   Scattered Clouds
2:35 PM 53.6 °F - 35.6 °F 51% 29.85 in 10.0 mi SW 3.5 mph - N/A   Partly Cloudy
2:55 PM 53.6 °F - 35.6 °F 51% 29.85 in 10.0 mi WSW 3.5 mph - N/A   Scattered Clouds
3:15 PM 53.6 °F - 35.6 °F 51% 29.85 in 10.0 mi West 3.5 mph - N/A   Scattered Clouds
3:35 PM 53.6 °F - 35.6 °F 51% 29.85 in 10.0 mi Calm Calm - N/A   Scattered Clouds
3:55 PM 53.6 °F - 35.6 °F 51% 29.85 in 10.0 mi WNW 3.5 mph - N/A   Scattered Clouds
4:15 PM 55.4 °F - 37.4 °F 51% 29.86 in 10.0 mi Calm Calm - N/A   Mostly Cloudy
4:35 PM 53.6 °F - 35.6 °F 51% 29.86 in 10.0 mi Calm Calm - N/A   Mostly Cloudy
4:55 PM 55.4 °F - 35.6 °F 47% 29.86 in 10.0 mi Calm Calm - N/A   Mostly Cloudy
5:15 PM 55.4 °F - 35.6 °F 47% 29.86 in 10.0 mi Calm Calm - N/A   Overcast
5:35 PM 53.6 °F - 35.6 °F 51% 29.87 in 10.0 mi Calm Calm - N/A   Overcast
5:55 PM 53.6 °F - 35.6 °F 51% 29.87 in 10.0 mi Calm Calm - N/A   Overcast
6:15 PM 53.6 °F - 35.6 °F 51% 29.87 in 10.0 mi Calm Calm - N/A   Overcast
6:35 PM 53.6 °F - 35.6 °F 51% 29.87 in 10.0 mi Calm Calm - N/A   Overcast
6:55 PM 51.8 °F - 35.6 °F 54% 29.88 in 10.0 mi Calm Calm - N/A   Scattered Clouds
7:15 PM 51.8 °F - 35.6 °F 54% 29.88 in 10.0 mi Calm Calm - N/A   Partly Cloudy
7:35 PM 51.8 °F - 35.6 °F 54% 29.87 in 10.0 mi Calm Calm - N/A   Mostly Cloudy
7:55 PM 51.8 °F - 35.6 °F 54% 29.88 in 10.0 mi Calm Calm - N/A   Mostly Cloudy
8:15 PM 50.0 °F - 35.6 °F 58% 29.89 in 10.0 mi Calm Calm - N/A   Mostly Cloudy
8:35 PM 51.8 °F - 35.6 °F 54% 29.89 in 10.0 mi Calm Calm - N/A   Mostly Cloudy
8:55 PM 51.8 °F - 35.6 °F 54% 29.89 in 10.0 mi Calm Calm - N/A   Overcast
9:15 PM 51.8 °F - 35.6 °F 54% 29.89 in 10.0 mi West 3.5 mph - N/A   Overcast
9:35 PM 50.0 °F - 35.6 °F 58% 29.89 in 10.0 mi Calm Calm - N/A   Overcast
9:55 PM 48.2 °F - 35.6 °F 62% 29.89 in 10.0 mi SSW 3.5 mph - N/A   Overcast
10:15 PM 48.2 °F - 35.6 °F 62% 29.89 in 10.0 mi Calm Calm - N/A   Overcast
10:35 PM 50.0 °F - 35.6 °F 58% 29.88 in 10.0 mi Calm Calm - N/A   Overcast
10:55 PM 48.2 °F - 33.8 °F 58% 29.88 in 10.0 mi Calm Calm - N/A   Overcast
11:15 PM 48.2 °F - 35.6 °F 62% 29.88 in 10.0 mi Calm Calm - N/A   Overcast
11:35 PM 46.4 °F - 35.6 °F 66% 29.88 in 10.0 mi Calm Calm - N/A   Overcast
11:55 PM 48.2 °F - 35.6 °F 62% 29.88 in 10.0 mi SSW 3.5 mph - N/A   Mostly Cloudy